Tracking 22438 objects as of 24-Feb-2021
HD Live streaming from Space Station
objects crossing your sky now

FREGAT DEB

Track FREGAT DEB now!
10-day predictions


NORAD ID: 46622
Int'l Code: 2011-037MN
Perigee: 597.9 km
Apogee: 6,049.8 km
Inclination: 51.2 °
Period: 158.3 minutes
Semi major axis: 9694 km
RCS: Unknown
Launch date: July 18, 2011
Source: Commonwealth of Independent States (former USSR) (CIS)
Launch site: TYURATAM MISSILE AND SPACE COMPLEX (TTMTR)

Note: This is SATELLITE DEBRIS
aabbcc
Your satellite tracking list
Your tracking list is empty




NASA's NSSDC Master Catalog

Two Line Element Set (TLE):
1 46622U 11037MN  20287.07924210 +.00066311 +00000-0 +83084-1 0  9997
2 46622 051.1944 190.7164 2811755 176.5001 186.0976 09.09476495001734
Source of the keplerian elements: AFSPC